Wind_Speed
11 11 10 11 12 11 11 12 13 13 12 13 15 15 14 16 16 15 16 15 14 14 13 14 15 15 14 13 14 14 13 13 13 13 12 12 12 12 11 10 10 10 11 11
13 13 12 13 14 14 14 14 14 13 14 14 15 16 14 15 16 17 17 17 16 14 15 15 16 16 16 14 13 14 14 14 13 13 14 14 13 12 11 11 11 11 12 13
15 13 14 14 15 16 15 15 15 14 15 15 14 15 15 15 16 17 17 16 14 15 16 16 16 16 17 16 15 14 15 15 14 13 14 14 14 13 13 12 12 12 13 13
16 15 16 16 16 16 16 16 17 16 15 14 14 15 16 18 18 18 18 17 15 17 17 16 16 16 16 16 16 15 15 15 14 13 13 13 13 14 13 12 12 12 12 12
16 16 16 16 16 16 15 16 17 17 16 16 15 16 17 18 19 19 18 18 18 18 18 17 17 16 16 16 16 16 16 16 15 14 14 14 14 14 14 14 13 13 13 12
15 15 16 17 17 17 16 17 17 18 17 18 16 17 19 20 19 20 20 19 19 18 19 18 17 16 16 15 16 16 16 16 15 14 15 15 15 15 15 14 14 14 14 14
17 16 17 17 18 17 16 16 17 17 18 18 16 17 20 20 20 21 22 21 18 19 18 18 17 17 17 17 16 16 16 15 15 15 15 16 16 16 16 15 15 15 15 15
17 17 16 17 18 18 17 17 16 17 17 16 16 20 20 21 23 22 21 21 19 18 19 18 18 18 18 17 17 17 17 17 17 16 16 16 17 17 16 16 16 16 16 16
17 18 17 19 19 19 18 18 17 18 18 18 18 20 19 20 22 21 21 20 20 19 19 19 20 19 19 19 19 18 18 18 18 18 17 17 17 17 16 17 17 17 18 18
18 19 19 20 20 20 19 18 18 19 20 20 20 18 18 21 22 22 21 21 21 20 20 20 21 20 20 20 20 19 19 20 20 20 19 18 18 17 18 18 18 18 18 18
21 22 20 21 22 21 20 19 20 20 20 20 21 19 18 19 20 21 21 22 22 23 22 22 21 22 21 21 21 21 21 21 21 21 21 20 19 19 19 19 20 20 20 20
24 24 23 22 22 21 20 20 21 23 22 22 22 22 20 20 20 21 22 22 22 24 24 23 22 23 22 21 22 22 22 22 22 22 22 22 21 21 21 21 21 21 22 22
25 26 24 22 22 22 22 22 22 23 23 23 24 25 21 23 23 22 22 23 24 23 24 24 23 23 23 22 22 23 23 23 23 23 23 22 22 22 22 22 22 23 23 23
27 27 25 24 22 21 22 22 23 24 24 25 25 25 22 24 25 24 24 25 25 24 25 25 24 24 24 23 23 23 23 23 24 24 23 23 23 22 23 23 24 24 24 25
27 27 26 25 24 23 23 23 23 24 24 25 26 26 27 27 27 26 26 27 27 26 25 26 25 25 25 24 24 24 24 24 24 24 23 24 24 24 25 25 26 26 26 27
28 27 27 26 25 24 25 26 25 26 26 27 28 29 31 29 29 28 27 27 28 28 28 27 27 26 25 26 26 26 26 25 25 25 26 26 26 26 27 27 27 28 29 29
28 27 27 27 25 27 28 26 27 27 28 29 30 31 32 31 29 27 27 27 28 29 28 28 28 27 26 26 27 27 27 27 27 27 28 28 28 28 28 28 29 30 30 31
27 26 26 25 26 29 28 26 27 29 29 30 31 32 31 30 29 28 28 28 27 29 29 28 28 27 28 28 28 28 28 28 28 28 29 29 29 29 29 29 30 31 32 32
26 25 25 25 26 28 27 27 27 29 30 30 31 32 31 29 28 29 29 28 28 29 30 29 29 28 28 28 28 28 28 29 29 29 29 30 30 30 30 30 30 31 31 31
26 25 26 26 26 27 28 28 28 29 31 31 31 30 30 29 29 29 29 28 28 29 29 30 29 29 29 29 29 29 29 29 30 30 30 30 31 31 32 32 31 31 31 31
25 25 26 26 26 27 29 29 29 29 31 30 31 31 30 31 30 30 30 30 30 30 30 30 30 30 30 30 31 31 30 31 31 31 31 31 32 32 32 32 32 31 31 31
24 25 26 26 27 29 29 29 30 32 32 31 32 31 30 30 30 30 30 31 30 29 30 30 30 30 30 30 31 32 32 32 32 32 32 32 32 32 32 31 31 31 31 31
26 26 27 28 29 29 29 29 31 31 31 31 32 31 30 31 31 30 30 31 30 29 31 31 30 30 30 30 31 31 31 32 32 32 31 32 31 31 31 30 30 30 29 29
26 26 27 28 30 30 30 29 30 30 29 30 31 31 31 32 32 31 31 31 31 31 31 31 31 30 30 29 30 30 30 31 31 31 31 31 30 30 29 29 29 28 28 28
26 27 28 29 30 31 31 31 30 29 29 31 31 32 32 32 32 31 31 31 31 31 31 30 30 30 30 30 30 30 30 30 30 30 30 30 29 29 29 28 28 28 28 27
27 28 28 29 29 30 30 31 31 31 30 31 32 32 32 31 31 30 30 30 31 31 31 31 31 30 30 31 31 30 30 30 29 29 29 29 29 29 29 29 28 27 28 27
Wind_Direction
229 235 233 231 236 236 239 246 254 256 254 267 276 277 273 270 272 275 280 283 281 284 289 290 289 291 288 288 291 294 291 288 285 282 280 280 279 282 288 287 288 289 287 286
239 240 238 235 239 241 240 243 251 259 259 263 272 279 281 275 275 275 278 279 273 280 284 284 284 288 290 289 290 293 292 287 283 280 276 274 277 280 284 284 283 286 290 295
242 242 240 238 240 242 246 247 248 251 257 263 267 275 281 275 272 271 277 279 277 275 279 280 282 286 289 288 288 289 289 284 281 279 277 274 278 278 281 281 283 287 291 294
241 237 238 242 242 243 247 251 252 248 252 261 266 270 271 271 272 273 276 280 279 279 277 277 280 285 286 286 284 284 286 282 278 276 275 277 279 277 280 283 283 285 289 294
241 237 240 244 247 243 247 248 250 255 260 258 261 268 268 262 268 274 280 280 278 280 280 281 279 282 286 286 284 283 282 280 278 274 272 275 279 279 279 280 280 283 288 290
242 241 245 246 247 247 248 252 255 258 261 261 264 265 262 264 267 267 272 277 278 278 275 274 276 277 281 283 281 281 282 278 277 275 272 273 277 278 278 276 279 283 284 284
243 242 246 245 246 251 251 252 252 252 256 261 262 260 262 268 268 270 274 273 273 274 273 270 272 275 277 282 282 280 283 281 280 275 274 274 276 275 275 275 279 284 285 282
249 246 247 248 246 247 251 248 251 255 258 265 260 263 264 267 269 271 270 274 272 273 273 272 274 275 277 280 281 281 280 281 282 277 276 278 280 278 276 276 279 282 283 281
245 252 251 250 250 246 246 247 250 257 261 260 259 264 261 266 269 271 271 272 272 273 272 273 275 277 277 278 279 278 278 279 280 278 277 279 280 279 277 275 277 279 282 281
240 246 245 247 247 247 247 247 247 249 258 264 262 258 263 274 275 274 275 274 274 273 273 272 274 276 274 275 277 276 276 278 279 279 278 276 277 277 277 276 275 279 282 283
241 244 244 245 247 244 244 244 247 250 254 262 265 262 264 265 274 275 276 275 272 271 271 274 274 275 277 275 274 274 274 276 278 277 277 276 276 277 278 278 277 277 280 283
239 242 244 242 246 248 247 245 247 249 252 255 262 266 264 265 268 272 276 277 272 273 273 274 274 274 277 275 273 273 274 274 275 275 276 276 275 277 279 279 278 279 279 282
240 242 245 245 243 245 247 245 245 249 256 258 261 266 266 268 267 267 274 276 275 273 275 275 275 276 277 276 275 274 273 274 274 275 275 275 274 275 277 278 279 280 281 282
244 245 245 244 245 246 248 248 248 249 253 257 259 262 263 264 267 267 270 271 273 272 271 273 274 274 275 275 274 273 273 273 273 272 272 274 273 274 276 277 279 280 281 281
246 247 248 247 245 243 242 241 245 248 250 254 257 261 262 262 265 267 270 271 271 272 271 271 273 274 272 273 273 273 274 274 273 272 271 273 273 274 276 277 278 278 280 280
249 250 249 248 245 244 245 245 245 246 248 253 256 257 260 262 263 263 267 271 272 271 272 272 273 274 273 272 272 272 274 274 272 271 271 272 274 275 276 278 280 279 279 279
251 250 248 246 245 245 246 245 245 248 250 255 259 261 261 264 263 261 265 269 270 272 271 271 274 274 273 272 272 271 272 273 273 272 271 273 273 275 277 279 280 279 278 279
251 250 249 248 247 248 248 250 251 252 253 257 258 261 263 266 268 266 266 268 268 270 269 269 271 272 272 272 272 272 272 272 273 274 273 274 274 275 277 280 281 281 279 278
250 251 250 249 250 254 252 252 252 252 254 256 258 261 263 266 266 264 264 264 265 268 268 269 270 270 271 272 272 273 273 272 273 273 274 275 276 276 278 280 281 281 280 279
252 250 250 251 251 253 254 256 256 255 256 259 261 262 263 266 265 265 265 263 265 266 266 267 268 269 270 271 271 272 272 273 273 274 275 277 277 278 279 280 281 281 281 281
253 252 250 251 253 254 254 255 257 258 258 261 262 262 264 267 267 266 265 267 266 266 266 267 268 268 269 271 272 272 272 272 274 275 275 276 278 278 279 281 282 281 281 281
254 255 255 253 254 256 258 258 258 260 262 262 263 263 264 265 266 265 265 265 265 266 267 268 268 268 269 271 272 273 273 273 273 274 275 276 276 277 278 280 281 281 281 282
253 252 253 255 257 260 259 260 260 259 260 262 264 265 265 265 266 265 265 265 265 266 267 268 268 268 269 271 272 273 273 273 273 274 275 275 276 277 277 279 282 282 282 282
253 254 254 255 258 260 261 260 262 262 264 264 265 266 266 267 266 265 266 266 266 267 267 267 267 268 268 269 271 273 273 274 274 275 275 275 276 278 278 279 280 281 283 283
254 253 253 255 257 260 260 261 263 265 264 264 265 267 266 266 265 265 264 264 266 266 266 266 267 267 267 268 269 272 273 274 275 276 275 275 276 278 279 279 278 280 281 282
254 254 256 259 260 261 261 263 264 267 268 267 267 267 267 267 266 264 263 264 265 265 265 266 265 267 268 268 269 270 272 273 275 276 275 275 277 279 279 279 279 280 281 281
Height
5861 5864 5865 5868 5870 5872 5874 5876 5877 5878 5877 5877 5876 5876 5876 5876 5875 5875 5875 5875 5874 5874 5874 5874 5873 5872 5871 5871 5871 5871 5871 5871 5871 5871 5871 5871 5871 5871 5871 5871 5871 5870 5869 5869
5859 5861 5864 5866 5868 5870 5871 5873 5873 5875 5875 5874 5874 5873 5873 5873 5872 5872 5872 5872 5871 5870 5871 5871 5871 5870 5869 5868 5868 5868 5868 5868 5868 5868 5868 5869 5869 5869 5869 5869 5869 5868 5868 5867
5856 5860 5861 5863 5865 5866 5868 5869 5870 5871 5871 5871 5871 5871 5870 5870 5869 5869 5869 5868 5867 5869 5869 5868 5868 5867 5866 5866 5866 5866 5866 5865 5865 5865 5865 5866 5866 5866 5867 5867 5866 5866 5865 5865
5853 5856 5858 5860 5861 5863 5864 5866 5867 5867 5868 5868 5868 5867 5867 5866 5866 5865 5865 5864 5864 5865 5864 5865 5865 5864 5864 5863 5863 5863 5863 5863 5862 5863 5863 5863 5863 5864 5864 5864 5864 5863 5863 5862
5850 5852 5854 5856 5858 5859 5861 5862 5863 5863 5863 5864 5864 5864 5864 5861 5861 5862 5862 5861 5861 5862 5861 5862 5862 5861 5861 5860 5860 5860 5860 5860 5860 5860 5860 5861 5861 5861 5861 5861 5861 5861 5861 5860
5846 5848 5850 5852 5854 5855 5857 5858 5858 5858 5858 5859 5861 5861 5859 5858 5857 5856 5857 5857 5858 5858 5858 5858 5858 5858 5858 5858 5857 5857 5857 5857 5857 5857 5857 5858 5858 5858 5858 5858 5858 5858 5858 5858
5842 5844 5846 5848 5850 5852 5853 5854 5854 5854 5855 5856 5857 5856 5855 5855 5855 5854 5853 5853 5853 5853 5853 5854 5854 5854 5854 5854 5854 5854 5853 5853 5853 5854 5854 5854 5854 5855 5855 5855 5855 5855 5855 5854
5838 5840 5842 5844 5845 5847 5848 5850 5850 5851 5851 5852 5851 5851 5851 5851 5851 5850 5849 5848 5848 5849 5850 5850 5850 5851 5851 5851 5851 5851 5850 5850 5850 5850 5851 5850 5851 5851 5851 5851 5851 5851 5851 5851
5834 5837 5839 5840 5841 5843 5844 5844 5847 5848 5847 5848 5847 5847 5846 5846 5846 5846 5846 5845 5845 5846 5846 5846 5846 5847 5846 5847 5847 5847 5847 5847 5847 5847 5847 5847 5847 5847 5847 5847 5847 5847 5847 5846
5829 5831 5834 5835 5836 5837 5839 5841 5842 5843 5843 5842 5843 5843 5843 5842 5841 5842 5842 5842 5841 5842 5842 5842 5842 5842 5841 5842 5842 5843 5843 5843 5843 5843 5843 5843 5843 5843 5843 5843 5843 5843 5842 5842
5823 5826 5828 5830 5830 5832 5834 5836 5836 5837 5838 5838 5838 5839 5838 5837 5837 5836 5837 5838 5838 5837 5837 5838 5838 5837 5837 5837 5837 5838 5838 5838 5838 5838 5839 5839 5839 5838 5838 5838 5838 5838 5838 5838
5817 5819 5821 5824 5826 5827 5827 5830 5832 5832 5833 5833 5833 5835 5833 5833 5832 5832 5833 5833 5833 5832 5832 5833 5833 5832 5832 5832 5832 5833 5833 5833 5833 5833 5833 5834 5834 5834 5834 5834 5834 5833 5833 5833
5811 5813 5815 5817 5821 5821 5822 5823 5826 5827 5828 5828 5828 5830 5828 5828 5827 5827 5828 5827 5827 5827 5827 5827 5827 5827 5827 5827 5827 5827 5827 5827 5827 5827 5828 5828 5828 5828 5828 5828 5828 5828 5827 5827
5804 5805 5808 5811 5813 5815 5816 5817 5819 5820 5821 5822 5822 5822 5823 5822 5822 5821 5822 5822 5821 5822 5822 5822 5822 5822 5821 5822 5822 5822 5822 5822 5822 5822 5822 5822 5822 5822 5822 5822 5822 5822 5821 5821
5796 5798 5800 5803 5805 5807 5808 5810 5812 5813 5814 5815 5816 5816 5816 5816 5816 5816 5815 5815 5816 5815 5816 5815 5815 5816 5816 5816 5816 5816 5816 5816 5816 5816 5816 5816 5816 5816 5816 5816 5816 5815 5815 5814
5789 5791 5793 5795 5798 5800 5801 5803 5805 5806 5807 5808 5809 5809 5808 5808 5808 5809 5808 5808 5808 5809 5809 5809 5809 5809 5810 5810 5810 5810 5810 5809 5809 5810 5810 5810 5810 5810 5809 5809 5809 5808 5807 5807
5781 5784 5786 5788 5791 5792 5793 5796 5797 5798 5799 5800 5801 5802 5801 5800 5800 5801 5802 5802 5802 5802 5802 5802 5802 5802 5802 5803 5803 5803 5803 5803 5802 5803 5803 5803 5803 5803 5802 5802 5801 5801 5800 5799
5774 5776 5778 5781 5783 5783 5787 5789 5790 5790 5791 5792 5792 5792 5792 5792 5792 5793 5794 5794 5794 5794 5794 5794 5794 5795 5795 5795 5795 5795 5795 5795 5795 5795 5795 5795 5795 5795 5795 5794 5793 5792 5791 5791
5767 5769 5771 5773 5774 5776 5779 5780 5781 5782 5782 5783 5783 5784 5784 5784 5784 5785 5785 5785 5785 5785 5785 5786 5786 5787 5787 5787 5787 5787 5787 5787 5787 5787 5788 5787 5787 5787 5786 5786 5785 5784 5783 5782
5760 5762 5764 5766 5767 5769 5771 5772 5773 5775 5773 5774 5775 5775 5776 5776 5776 5777 5777 5776 5776 5776 5777 5777 5778 5779 5779 5779 5779 5779 5779 5779 5779 5779 5779 5779 5778 5778 5778 5777 5776 5775 5774 5773
5753 5754 5756 5758 5759 5761 5762 5763 5765 5766 5766 5766 5766 5766 5767 5767 5768 5768 5768 5768 5768 5768 5768 5769 5770 5770 5771 5771 5771 5771 5771 5771 5771 5771 5771 5770 5770 5769 5768 5768 5767 5766 5765 5764
5746 5748 5749 5751 5751 5754 5753 5755 5757 5757 5757 5757 5757 5757 5758 5759 5758 5758 5759 5759 5759 5760 5760 5760 5761 5762 5762 5762 5762 5762 5763 5763 5763 5763 5762 5761 5761 5760 5760 5759 5758 5757 5756 5756
5740 5742 5742 5744 5745 5745 5745 5746 5747 5747 5747 5748 5748 5749 5749 5749 5749 5750 5750 5750 5750 5751 5752 5752 5752 5753 5753 5753 5753 5754 5754 5754 5754 5754 5753 5752 5752 5751 5751 5750 5749 5749 5748 5747
5733 5734 5735 5736 5736 5736 5737 5738 5737 5737 5738 5739 5739 5739 5740 5740 5740 5740 5740 5741 5742 5742 5743 5743 5744 5744 5745 5745 5745 5745 5745 5745 5744 5744 5744 5743 5743 5742 5742 5742 5741 5740 5739 5739
5725 5726 5727 5727 5728 5728 5729 5729 5729 5730 5730 5730 5730 5730 5730 5730 5730 5731 5731 5732 5733 5734 5734 5735 5735 5736 5736 5736 5737 5737 5736 5736 5736 5735 5735 5735 5734 5734 5734 5733 5733 5732 5732 5730
5718 5718 5719 5719 5720 5720 5720 5721 5721 5721 5720 5721 5721 5721 5720 5720 5721 5721 5722 5723 5724 5724 5725 5725 5726 5727 5727 5728 5728 5728 5728 5728 5727 5727 5726 5726 5726 5726 5725 5725 5724 5723 5723 5722